DW7358 Weather Reports


time (UTC)temp
C
wind
direction
speed
KPH
gust
KPH
rain 1hr
cm
rain 24hr
cm
rain mn
cm
humidity
%
barometer
mb
20260906131041 20 92 3.2 9.7 0.00 0.03 0.00 97 1020.3
20260906130543 20 113 3.2 6.4 0.00 0.03 0.00 98 1020.3
20260906130104 20 107 1.6 6.4 0.00 0.03 0.00 98 1020.3
20260906125544 20 108 1.6 6.4 0.00 0.03 0.00 98 1020.3
20260906125042 20 97 0.0 6.4 0.00 0.03 0.00 98 1020.3
20260906124603 20 0 1.6 6.4 0.00 0.03 0.00 98 1020.2
20260906124043 19 0 0.0 4.8 0.00 0.03 0.00 98 1020.1
20260906123542 19 0 0.0 4.8 0.00 0.03 0.00 99 1020.1
20260906123056 19 0 0.0 4.8 0.00 0.03 0.00 99 1020.0
20260906122543 19 313 0.0 3.2 0.00 0.03 0.00 98 1020.0
20260906122043 19 313 0.0 1.6 0.00 0.03 0.00 98 1020.0
20260906121552 19 0 0.0 1.6 0.00 0.03 0.00 98 1019.9
20260906121043 18 0 0.0 1.6 0.00 0.03 0.00 99 1020.0
20260906120545 18 313 0.0 1.6 0.00 0.03 0.00 98 1019.8
20260906115543 18 313 0.0 3.2 0.00 0.03 0.00 98 1019.7
20260906115045 18 0 0.0 3.2 0.00 0.03 0.00 98 1019.6
20260906114600 18 0 0.0 3.2 0.00 0.03 0.00 98 1019.4
20260906114043 18 0 0.0 3.2 0.00 0.03 0.00 98 1019.2
20260906113543 18 0 0.0 3.2 0.00 0.03 0.00 98 1019.3
20260906113055 18 0 0.0 1.6 0.00 0.03 0.00 98 1019.2
20260906112543 18 0 0.0 1.6 0.00 0.03 0.00 98 1019.1
20260906112043 18 0 0.0 1.6 0.00 0.03 0.00 98 1019.1
20260906111602 18 0 0.0 0.0 0.00 0.03 0.00 98 1019.1
20260906111043 18 0 0.0 0.0 0.00 0.03 0.00 98 1019.1
20260906110543 18 0 0.0 0.0 0.00 0.03 0.00 98 1019.0
20260906110058 18 0 0.0 0.0 0.00 0.03 0.00 98 1019.1
20260906105543 18 0 0.0 1.6 0.00 0.03 0.00 98 1019.1
20260906105042 18 0 0.0 1.6 0.00 0.03 0.00 98 1019.0
20260906104603 18 0 0.0 1.6 0.00 0.03 0.00 98 1018.9
20260906104047 18 0 0.0 1.6 0.00 0.03 0.00 98 1018.9
20260906103544 18 0 0.0 1.6 0.00 0.03 0.00 98 1018.8
20260906103054 18 0 0.0 1.6 0.00 0.03 0.00 98 1018.7
20260906102543 18 0 0.0 1.6 0.00 0.03 0.00 98 1018.8
20260906102043 18 0 0.0 1.6 0.00 0.03 0.00 98 1018.7
20260906101602 18 0 0.0 1.6 0.00 0.03 0.00 98 1018.6
20260906101044 18 0 0.0 1.6 0.00 0.03 0.00 98 1018.6
20260906100546 18 0 0.0 1.6 0.00 0.03 0.00 98 1018.7
20260906100056 18 0 0.0 1.6 0.00 0.03 0.00 98 1018.6
20260906095546 18 0 0.0 1.6 0.00 0.03 0.00 98 1018.6
20260906095043 18 0 0.0 1.6 0.00 0.03 0.00 98 1018.7
20260906094611 18 0 0.0 1.6 0.00 0.03 0.00 98 1018.6
20260906094043 18 0 0.0 0.0 0.00 0.03 0.00 98 1018.5
20260906093544 18 0 0.0 0.0 0.00 0.03 0.00 98 1018.5
20260906093129 18 0 0.0 0.0 0.00 0.03 0.00 97 1018.6
20260906092543 18 0 0.0 0.0 0.00 0.03 0.00 97 1018.5
20260906092043 18 0 0.0 0.0 0.00 0.03 0.00 97 1018.5
20260906091609 18 0 0.0 0.0 0.00 0.03 0.00 97 1018.4
20260906091043 18 0 0.0 0.0 0.00 0.03 0.00 97 1018.4
20260906090543 18 0 0.0 0.0 0.00 0.03 0.00 97 1018.5
20260906090100 18 0 0.0 0.0 0.00 0.03 0.00 97 1018.5
20260906085543 18 0 0.0 0.0 0.00 0.03 0.00 97 1018.4
20260906085043 18 0 0.0 0.0 0.00 0.03 0.00 97 1018.3
20260906084556 18 0 0.0 1.6 0.00 0.03 0.00 97 1018.4
20260906084043 18 0 0.0 1.6 0.00 0.03 0.00 97 1018.4
20260906083543 19 0 0.0 1.6 0.00 0.03 0.00 97 1018.3
20260906083057 19 0 0.0 1.6 0.00 0.03 0.00 97 1018.5
20260906082543 19 0 0.0 1.6 0.00 0.03 0.00 97 1018.4
20260906082043 19 0 0.0 1.6 0.00 0.03 0.00 97 1018.4
20260906081604 19 0 0.0 1.6 0.00 0.03 0.00 97 1018.5
20260906081044 19 0 0.0 1.6 0.00 0.03 0.00 96 1018.4
20260906080546 19 0 0.0 0.0 0.00 0.03 0.00 96 1018.4
20260906075543 19 0 0.0 0.0 0.00 0.03 0.00 96 1018.4
20260906075044 19 0 0.0 0.0 0.00 0.03 0.00 96 1018.4
20260906074557 20 0 0.0 1.6 0.00 0.03 0.00 96 1018.4
20260906074043 20 0 0.0 1.6 0.00 0.03 0.00 96 1018.4
20260906073543 20 0 0.0 1.6 0.00 0.03 0.00 96 1018.4
20260906073100 20 0 0.0 1.6 0.00 0.03 0.00 96 1018.5
20260906072546 20 0 0.0 1.6 0.00 0.03 0.00 96 1018.5
20260906072043 20 0 0.0 1.6 0.00 0.03 0.00 96 1018.5
20260906071553 20 0 0.0 1.6 0.00 0.03 0.00 96 1018.4
20260906071043 20 0 0.0 3.2 0.00 0.03 0.00 96 1018.5
20260906070544 20 0 0.0 3.2 0.00 0.03 0.00 96 1018.5
20260906070057 20 0 0.0 1.6 0.00 0.03 0.00 96 1018.6
20260906065544 20 0 0.0 3.2 0.00 0.03 0.00 96 1018.5
20260906065047 20 0 0.0 3.2 0.00 0.03 0.00 96 1018.5
20260906064555 20 311 0.0 3.2 0.00 0.03 0.00 96 1018.5
20260906064046 20 0 0.0 1.6 0.00 0.03 0.00 96 1018.5
20260906063546 20 0 0.0 1.6 0.00 0.03 0.00 95 1018.5
20260906063057 20 0 0.0 1.6 0.00 0.03 0.00 95 1018.5
20260906062548 20 0 0.0 1.6 0.00 0.03 0.00 95 1018.5
20260906062046 20 0 0.0 1.6 0.00 0.03 0.00 95 1018.4
20260906061556 20 0 0.0 1.6 0.00 0.03 0.00 95 1018.5
20260906061044 20 0 0.0 1.6 0.00 0.03 0.00 95 1018.5
20260906060546 20 0 0.0 4.8 0.00 0.03 0.00 95 1018.4
20260906060104 20 0 0.0 4.8 0.00 0.03 0.00 95 1018.5
20260906055546 20 0 0.0 0.0 0.00 0.03 0.00 95 1018.5
20260906055046 20 0 0.0 0.0 0.00 0.03 0.00 95 1018.6
20260906054610 21 0 0.0 0.0 0.00 0.03 0.00 95 1018.5
20260906054046 20 0 0.0 0.0 0.00 0.03 0.00 95 1018.6
20260906053548 20 0 0.0 1.6 0.00 0.03 0.00 95 1018.6
20260906053056 20 0 0.0 3.2 0.00 0.03 0.00 95 1018.6
20260906052545 20 0 0.0 3.2 0.00 0.03 0.00 95 1018.5
20260906052049 20 0 0.0 1.6 0.00 0.03 0.00 95 1018.4
20260906051604 20 0 0.0 4.8 0.00 0.03 0.00 95 1018.5
20260906051046 20 0 0.0 4.8 0.00 0.03 0.00 95 1018.4
20260906050546 20 311 0.0 1.6 0.00 0.03 0.00 95 1018.3
20260906050108 20 0 0.0 1.6 0.00 0.03 0.00 95 1018.2
20260906045547 20 0 0.0 1.6 0.00 0.03 0.03 95 1018.2
20260906045045 20 0 0.0 3.2 0.00 0.03 0.03 95 1018.3
20260906044603 20 0 0.0 4.8 0.00 0.03 0.03 95 1018.2
20260906044046 20 311 0.0 4.8 0.00 0.03 0.03 95 1018.1
20260906043545 20 93 0.0 1.6 0.00 0.03 0.03 95 1018.0
20260906043055 20 0 0.0 1.6 0.00 0.03 0.03 95 1017.9
20260906042547 20 0 0.0 1.6 0.00 0.03 0.03 95 1017.8
20260906042047 21 0 0.0 1.6 0.00 0.03 0.03 94 1017.8
20260906041601 21 0 0.0 3.2 0.00 0.03 0.03 94 1017.7
20260906041047 21 93 0.0 3.2 0.00 0.03 0.03 94 1017.6
20260906040546 21 0 0.0 4.8 0.00 0.03 0.03 94 1017.6
20260906040106 21 93 0.0 4.8 0.00 0.03 0.03 94 1017.5
20260906035545 21 92 0.0 4.8 0.00 0.03 0.03 94 1017.5
20260906035046 21 0 0.0 4.8 0.00 0.03 0.03 94 1017.6
20260906034603 21 90 0.0 4.8 0.00 0.03 0.03 94 1017.5
20260906034046 21 94 0.0 4.8 0.00 0.03 0.03 94 1017.4
20260906033543 21 0 0.0 4.8 0.00 0.03 0.03 94 1017.5
20260906033054 21 0 0.0 4.8 0.00 0.03 0.03 94 1017.4
20260906032547 21 94 1.6 4.8 0.00 0.03 0.03 94 1017.3
20260906032046 21 96 1.6 4.8 0.00 0.03 0.03 94 1017.3
20260906031556 21 100 0.0 4.8 0.00 0.03 0.03 94 1017.4
20260906031045 21 0 0.0 4.8 0.00 0.03 0.03 94 1017.4
20260906030546 21 0 0.0 6.4 0.00 0.03 0.03 93 1017.5
20260906025545 21 0 0.0 6.4 0.00 0.05 0.03 93 1017.4
20260906025044 21 0 1.6 4.8 0.00 0.05 0.03 93 1017.5
20260906024600 21 0 0.0 4.8 0.00 0.05 0.03 93 1017.5
20260906024045 21 0 0.0 4.8 0.00 0.05 0.03 93 1017.4
20260906023545 21 92 0.0 3.2 0.00 0.05 0.03 92 1017.4
20260906023058 21 92 0.0 3.2 0.00 0.05 0.03 92 1017.3
20260906022548 21 0 0.0 1.6 0.00 0.05 0.03 92 1017.2
20260906022046 21 0 0.0 1.6 0.00 0.05 0.03 92 1017.2
20260906021600 21 0 0.0 3.2 0.00 0.05 0.03 92 1017.2
20260906021043 21 0 0.0 4.8 0.00 0.05 0.03 92 1017.2
20260906020545 21 0 0.0 4.8 0.00 0.05 0.03 92 1017.3
20260906020104 21 0 0.0 1.6 0.00 0.05 0.03 92 1017.3
20260906015543 21 0 0.0 3.2 0.00 0.05 0.03 92 1017.5
20260906015043 21 90 0.0 4.8 0.00 0.05 0.03 92 1017.4
20260906014633 21 78 0.0 4.8 0.00 0.05 0.03 92 1017.4
20260906014043 21 0 0.0 3.2 0.00 0.05 0.03 92 1017.5
20260906013544 21 93 0.0 4.8 0.00 0.05 0.03 92 1017.6
20260906013102 21 93 0.0 4.8 0.00 0.05 0.03 91 1017.5
20260906012543 21 0 0.0 4.8 0.00 0.05 0.03 91 1017.5
20260906012044 21 0 1.6 4.8 0.00 0.05 0.03 91 1017.5
20260906011603 21 92 0.0 9.7 0.00 0.05 0.03 91 1017.6
20260906011044 21 78 1.6 9.7 0.00 0.05 0.03 91 1017.5
20260906010543 22 84 1.6 4.8 0.00 0.05 0.03 91 1017.5
20260906010058 22 0 0.0 4.8 0.00 0.05 0.03 91 1017.4
20260906005543 22 348 0.0 4.8 0.00 0.05 0.03 91 1017.3
20260906005043 21 69 1.6 6.4 0.00 0.05 0.03 91 1017.2
20260906004612 21 13 1.6 6.4 0.00 0.05 0.03 90 1017.2
20260906004046 21 75 0.0 4.8 0.00 0.05 0.03 91 1017.0
20260906003544 21 78 0.0 4.8 0.00 0.05 0.03 91 1017.0
20260906003113 22 0 0.0 4.8 0.00 0.05 0.03 91 1017.1
20260906002543 22 0 0.0 4.8 0.00 0.05 0.03 91 1017.1
20260906002044 22 0 0.0 1.6 0.00 0.05 0.03 91 1017.1
20260906001555 22 0 0.0 1.6 0.00 0.05 0.03 91 1017.0
20260906001044 22 0 0.0 4.8 0.00 0.05 0.03 90 1017.0
20260906000547 22 0 0.0 4.8 0.00 0.05 0.03 90 1017.1
20260906000100 22 26 0.0 6.4 0.00 0.05 0.03 90 1016.9
20260905235544 22 24 0.0 6.4 0.00 0.05 0.03 90 1016.8
20260905235044 22 0 0.0 8.0 0.00 0.05 0.03 90 1016.8
20260905234611 22 65 1.6 8.0 0.00 0.05 0.03 89 1016.8
20260905234044 22 11 1.6 8.0 0.00 0.05 0.03 89 1017.0
20260905233544 22 0 1.6 4.8 0.00 0.05 0.03 89 1017.0
20260905233059 22 84 0.0 4.8 0.00 0.05 0.03 88 1016.9
20260905232543 23 81 1.6 6.4 0.00 0.05 0.03 87 1016.8
20260905232046 23 0 1.6 14.5 0.00 0.05 0.03 87 1016.8
20260905231554 23 223 1.6 14.5 0.00 0.05 0.03 86 1016.6
20260905231047 23 95 4.8 14.5 0.00 0.05 0.03 85 1016.6
20260905230547 23 98 3.2 14.5 0.00 0.05 0.03 85 1016.4
20260905230108 24 355 3.2 14.5 0.00 0.05 0.03 84 1016.4
20260905225544 24 67 3.2 11.3 0.00 0.05 0.03 85 1016.4
20260905225044 24 74 3.2 9.7 0.00 0.05 0.03 85 1016.3
20260905224607 25 161 3.2 9.7 0.00 0.05 0.03 85 1016.3
20260905224044 25 80 1.6 11.3 0.00 0.05 0.03 84 1016.2
20260905223545 25 80 3.2 11.3 0.00 0.05 0.03 83 1016.2
20260905223054 25 85 1.6 11.3 0.00 0.05 0.03 82 1016.1
20260905222544 25 100 1.6 9.7 0.00 0.05 0.03 82 1016.1
20260905222045 25 62 1.6 6.4 0.00 0.05 0.03 82 1016.0
20260905221616 25 90 1.6 9.7 0.00 0.05 0.03 83 1016.1
20260905221044 25 96 1.6 12.9 0.00 0.05 0.03 83 1016.1
20260905220544 25 80 3.2 12.9 0.00 0.05 0.03 82 1016.1
20260905220056 26 89 3.2 6.4 0.00 0.05 0.03 84 1016.0
20260905215544 26 121 1.6 6.4 0.00 0.05 0.03 83 1016.1
20260905215045 26 169 1.6 6.4 0.00 0.05 0.03 81 1016.1
20260905214557 26 82 3.2 6.4 0.00 0.05 0.03 81 1015.8
20260905214043 26 76 1.6 9.7 0.00 0.05 0.03 81 1015.9
20260905213544 26 96 1.6 9.7 0.00 0.05 0.03 80 1015.8
20260905213106 26 103 1.6 9.7 0.00 0.05 0.03 79 1015.7
20260905212543 27 116 1.6 9.7 0.00 0.05 0.03 78 1015.8
20260905212044 27 86 1.6 4.8 0.00 0.05 0.03 76 1015.5
20260905211600 27 355 1.6 4.8 0.00 0.05 0.03 77 1015.6
20260905211047 26 332 1.6 6.4 0.00 0.05 0.03 77 1015.6
20260905210546 26 17 1.6 6.4 0.00 0.05 0.03 76 1015.7
20260905210059 26 86 1.6 12.9 0.00 0.05 0.03 77 1015.7
20260905205544 26 344 3.2 12.9 0.00 0.05 0.03 78 1015.6
20260905205044 26 0 3.2 12.9 0.00 0.05 0.03 79 1015.8
20260905204555 26 0 3.2 9.7 0.00 0.05 0.03 79 1015.8
20260905204044 26 299 0.0 6.4 0.00 0.05 0.03 80 1015.9
20260905203546 26 22 0.0 6.4 0.00 0.05 0.03 81 1015.9
20260905203104 26 28 0.0 4.8 0.00 0.05 0.03 82 1016.0
20260905202545 26 94 0.0 4.8 0.00 0.05 0.03 82 1015.9
20260905202046 26 94 0.0 4.8 0.00 0.05 0.03 82 1015.9
20260905201615 26 92 1.6 6.4 0.00 0.05 0.03 82 1015.8
20260905201044 26 90 1.6 6.4 0.00 0.05 0.03 81 1015.8
20260905200544 26 142 1.6 6.4 0.00 0.05 0.03 83 1015.8
20260905200100 26 109 1.6 6.4 0.00 0.05 0.03 84 1015.9
20260905195544 26 0 0.0 6.4 0.00 0.05 0.03 85 1015.9
20260905195044 25 98 1.6 8.0 0.00 0.05 0.03 86 1015.9
20260905194554 25 159 1.6 8.0 0.00 0.05 0.03 87 1016.0
20260905194047 25 309 1.6 8.0 0.00 0.05 0.03 87 1016.1
20260905193541 25 82 0.0 4.8 0.00 0.05 0.03 87 1016.2
20260905193113 25 0 0.0 4.8 0.00 0.05 0.03 87 1016.2
20260905192546 25 0 0.0 4.8 0.00 0.05 0.03 87 1016.3
20260905192045 25 90 1.6 4.8 0.00 0.05 0.03 87 1016.4
20260905191555 25 91 1.6 6.4 0.00 0.05 0.03 87 1016.4
20260905191045 25 0 0.0 6.4 0.00 0.05 0.03 87 1016.4
20260905190545 25 91 0.0 6.4 0.00 0.05 0.03 87 1016.4
20260905190055 25 331 1.6 6.4 0.00 0.05 0.03 87 1016.3
20260905185544 25 0 1.6 6.4 0.00 0.05 0.03 87 1016.4
20260905185049 25 0 0.0 6.4 0.00 0.05 0.03 87 1016.5
20260905184603 25 331 1.6 8.0 0.00 0.05 0.03 87 1016.6
20260905184044 24 0 1.6 8.0 0.00 0.05 0.03 88 1016.6
20260905183546 24 329 1.6 8.0 0.00 0.05 0.03 87 1016.4
20260905183057 24 80 0.0 3.2 0.00 0.05 0.03 88 1016.6
20260905182545 24 0 0.0 6.4 0.00 0.05 0.03 88 1016.6
20260905182046 24 0 0.0 6.4 0.00 0.05 0.03 88 1016.8
20260905181608 24 82 0.0 4.8 0.00 0.05 0.03 88 1016.6
20260905181047 24 360 0.0 6.4 0.00 0.05 0.03 89 1016.6
20260905180543 24 0 1.6 6.4 0.00 0.05 0.03 89 1016.6
20260905180059 24 0 0.0 6.4 0.00 0.05 0.03 89 1016.5
20260905175546 24 296 0.0 4.8 0.00 0.05 0.03 89 1016.5
20260905175046 24 0 0.0 4.8 0.00 0.05 0.03 89 1016.4
20260905174603 24 0 0.0 4.8 0.00 0.05 0.03 89 1016.4
20260905174045 24 99 0.0 4.8 0.00 0.05 0.03 89 1016.4
20260905173546 24 0 0.0 4.8 0.00 0.05 0.03 89 1016.5
20260905173103 24 96 0.0 6.4 0.00 0.05 0.03 89 1016.4
20260905172545 24 95 1.6 6.4 0.00 0.05 0.03 88 1016.4
20260905172045 24 35 0.0 4.8 0.00 0.05 0.03 88 1016.4
20260905171553 24 0 0.0 4.8 0.00 0.05 0.03 88 1016.4
20260905171044 24 0 0.0 4.8 0.00 0.05 0.03 88 1016.5
20260905170546 24 68 0.0 4.8 0.00 0.05 0.03 88 1016.5
20260905170057 24 76 0.0 9.7 0.00 0.05 0.03 88 1016.6
20260905165545 24 12 1.6 9.7 0.00 0.05 0.03 88 1016.6
20260905165045 25 0 1.6 6.4 0.00 0.05 0.03 89 1016.6
20260905164607 25 44 0.0 4.8 0.00 0.05 0.03 89 1016.6
20260905164048 24 0 0.0 3.2 0.00 0.05 0.03 89 1016.6
20260905163545 24 28 0.0 3.2 0.00 0.05 0.03 89 1016.6
20260905163055 24 29 1.6 6.4 0.00 0.05 0.03 89 1016.4
20260905162545 24 348 1.6 6.4 0.00 0.05 0.03 89 1016.4
20260905162046 25 11 1.6 4.8 0.03 0.05 0.03 88 1016.5
20260905161603 25 28 1.6 4.8 0.03 0.05 0.03 89 1016.5
20260905161046 25 308 0.0 12.9 0.03 0.05 0.03 89 1016.6
20260905160547 25 302 1.6 12.9 0.03 0.05 0.03 88 1016.6
20260905160056 25 92 1.6 6.4 0.03 0.05 0.03 88 1016.5
20260905155545 25 79 1.6 11.3 0.03 0.05 0.03 88 1016.4
20260905155046 25 126 1.6 11.3 0.03 0.05 0.03 89 1016.3
20260905154609 25 75 1.6 6.4 0.03 0.05 0.03 90 1016.1
20260905154045 25 0 0.0 6.4 0.03 0.05 0.03 90 1016.1
20260905153545 24 71 1.6 4.8 0.03 0.05 0.03 90 1016.1
20260905153053 24 33 1.6 6.4 0.03 0.05 0.03 91 1016.0
20260905152545 24 28 0.0 6.4 0.03 0.05 0.03 91 1015.9
20260905152042 24 0 1.6 4.8 0.00 0.03 0.00 92 1015.9
20260905151605 24 0 0.0 4.8 0.00 0.03 0.00 92 1015.8
20260905151042 24 330 0.0 4.8 0.00 0.03 0.00 93 1015.8
20260905150545 23 265 0.0 4.8 0.00 0.03 0.00 94 1015.8
20260905150056 23 0 0.0 4.8 0.00 0.03 0.00 95 1015.7
20260905145546 23 85 0.0 4.8 0.00 0.03 0.00 95 1015.7
20260905145045 23 0 0.0 4.8 0.00 0.03 0.00 96 1015.8
20260905144602 23 347 1.6 4.8 0.00 0.03 0.00 97 1015.8
20260905144042 23 71 0.0 4.8 0.00 0.03 0.00 97 1015.7
20260905143545 23 91 1.6 4.8 0.00 0.03 0.00 97 1015.6
20260905143056 23 88 0.0 3.2 0.00 0.03 0.00 97 1015.6
20260905142542 22 91 0.0 3.2 0.00 0.03 0.00 97 1015.8
20260905142045 22 0 0.0 3.2 0.00 0.03 0.00 98 1015.7
20260905141559 22 96 1.6 4.8 0.00 0.03 0.00 98 1015.8
20260905141045 22 88 1.6 4.8 0.00 0.03 0.00 98 1015.7
20260905140546 22 338 0.0 3.2 0.00 0.03 0.00 98 1015.7
20260905140106 22 13 0.0 3.2 0.00 0.03 0.00 98 1015.4
20260905135547 22 0 0.0 3.2 0.00 0.03 0.00 98 1015.4
20260905135043 22 0 0.0 3.2 0.00 0.03 0.00 98 1015.5
20260905134556 22 0 0.0 4.8 0.00 0.03 0.00 99 1015.5
20260905134045 22 0 0.0 4.8 0.00 0.03 0.00 99 1015.5
20260905133541 22 47 0.0 4.8 0.00 0.03 0.00 99 1015.5
20260905133056 22 0 0.0 3.2 0.00 0.03 0.00 99 1015.5
20260905132543 22 0 0.0 0.0 0.00 0.03 0.00 99 1015.7
20260905132045 22 0 0.0 8.0 0.00 0.03 0.00 99 1015.9
20260905131609 22 0 0.0 8.0 0.00 0.03 0.00 99 1016.2